Time,TemperatureF,DewpointF,PressureIn,WindDirection,WindDirectionDegrees,WindSpeedMPH,WindSpeedGustMPH,Humidity,HourlyPrecipIn,Conditions,Clouds,dailyrainin,SoftwareType,DateUTC
2017-03-29 00:38:00,53.0,48.0,-100.00,ENE,60,1.0,4.0,83,-99.99,,,-99.99,,2017-03-29 04:38:00,
2017-03-29 01:09:00,53.0,48.0,-100.00,ENE,70,1.0,4.0,83,-99.99,,,-99.99,,2017-03-29 05:09:00,
2017-03-29 02:08:00,51.0,47.0,-100.00,NNE,25,0.0,3.0,84,-99.99,,,-99.99,,2017-03-29 06:08:00,
2017-03-29 03:17:00,49.0,45.0,-100.00,East,80,1.0,2.0,84,-99.99,,,-99.99,,2017-03-29 07:17:00,
2017-03-29 03:49:00,49.0,45.0,-100.00,SE,125,1.0,-999.0,86,-99.99,,,-99.99,,2017-03-29 07:49:00,
2017-03-29 04:08:00,48.0,45.0,-100.00,ESE,110,1.0,4.0,87,-99.99,,,-99.99,,2017-03-29 08:08:00,
2017-03-29 04:56:00,47.0,43.0,-100.00,NE,55,1.0,3.0,86,-99.99,,,-99.99,,2017-03-29 08:56:00,
2017-03-29 05:17:00,47.0,43.0,-100.00,East,90,1.0,3.0,86,-99.99,,,-99.99,,2017-03-29 09:17:00,
2017-03-29 05:47:00,47.0,41.0,-100.00,ENE,75,1.0,2.0,80,-99.99,,,-99.99,,2017-03-29 09:47:00,
2017-03-29 07:11:00,46.0,40.0,-100.00,NNW,345,1.0,6.0,81,-99.99,,,-99.99,,2017-03-29 11:11:00,
2017-03-29 07:56:00,44.0,39.0,-100.00,SSW,195,1.0,5.0,84,-99.99,,,-99.99,,2017-03-29 11:56:00,
2017-03-29 08:17:00,44.0,39.0,-100.00,SSW,195,1.0,6.0,84,-99.99,,,-99.99,,2017-03-29 12:17:00,
2017-03-29 08:37:00,44.0,39.0,-100.00,SSW,210,1.0,4.0,83,-99.99,,,-99.99,,2017-03-29 12:37:00,
2017-03-29 09:17:00,44.0,37.0,-100.00,SE,145,1.0,4.0,76,-99.99,,,-99.99,,2017-03-29 13:17:00,
2017-03-29 09:37:00,43.0,36.0,-100.00,East,95,1.0,4.0,76,-99.99,,,-99.99,,2017-03-29 13:37:00,
2017-03-29 09:56:00,43.0,36.0,-100.00,ESE,110,1.0,5.0,77,-99.99,,,-99.99,,2017-03-29 13:56:00,
2017-03-29 10:17:00,44.0,37.0,-100.00,SSW,195,1.0,4.0,76,-99.99,,,-99.99,,2017-03-29 14:17:00,
2017-03-29 10:37:00,45.0,38.0,-100.00,NNE,25,1.0,4.0,75,-99.99,,,-99.99,,2017-03-29 14:37:00,
2017-03-29 10:56:00,46.0,38.0,-100.00,East,80,1.0,4.0,74,-99.99,,,-99.99,,2017-03-29 14:56:00,
2017-03-29 11:37:00,46.0,39.0,-100.00,SSE,165,1.0,4.0,78,-99.99,,,-99.99,,2017-03-29 15:37:00,
2017-03-29 12:17:00,47.0,41.0,-100.00,South,180,1.0,3.0,78,-99.99,,,-99.99,,2017-03-29 16:17:00,
2017-03-29 13:17:00,49.0,42.0,-100.00,SW,230,1.0,5.0,76,-99.99,,,-99.99,,2017-03-29 17:17:00,
2017-03-29 13:37:00,50.0,42.0,-100.00,NNE,25,1.0,4.0,73,-99.99,,,-99.99,,2017-03-29 17:37:00,
2017-03-29 13:56:00,52.0,43.0,-100.00,ENE,60,1.0,4.0,72,-99.99,,,-99.99,,2017-03-29 17:56:00,
2017-03-29 14:17:00,52.0,43.0,-100.00,SSE,165,2.0,3.0,71,-99.99,,,-99.99,,2017-03-29 18:17:00,
2017-03-29 15:08:00,52.0,43.0,-100.00,NE,40,1.0,4.0,71,-99.99,,,-99.99,,2017-03-29 19:08:00,
2017-03-29 15:37:00,55.0,43.0,-100.00,ENE,75,2.0,6.0,66,-99.99,,,-99.99,,2017-03-29 19:37:00,
2017-03-29 15:56:00,55.0,44.0,-100.00,NNE,20,1.0,4.0,65,-99.99,,,-99.99,,2017-03-29 19:56:00,
2017-03-29 16:17:00,56.0,45.0,-100.00,NNE,15,1.0,7.0,67,-99.99,,,-99.99,,2017-03-29 20:17:00,
2017-03-29 16:47:00,57.0,44.0,-100.00,ESE,105,2.0,6.0,63,-99.99,,,-99.99,,2017-03-29 20:47:00,
2017-03-29 17:37:00,58.0,45.0,-100.00,WSW,250,1.0,4.0,63,-99.99,,,-99.99,,2017-03-29 21:37:00,
2017-03-29 17:56:00,59.0,46.0,-100.00,NE,45,1.0,4.0,61,-99.99,,,-99.99,,2017-03-29 21:56:00,
2017-03-29 18:17:00,59.0,45.0,-100.00,WSW,250,1.0,4.0,61,-99.99,,,-99.99,,2017-03-29 22:17:00,
2017-03-29 19:37:00,59.0,45.0,-100.00,SW,215,2.0,4.0,60,-99.99,,,-99.99,,2017-03-29 23:37:00,
2017-03-29 20:47:00,55.0,45.0,-100.00,SSW,210,2.0,4.0,68,-99.99,,,-99.99,,2017-03-30 00:47:00,
2017-03-29 21:08:00,55.0,44.0,-100.00,SW,220,1.0,2.0,68,-99.99,,,-99.99,,2017-03-30 01:08:00,
2017-03-29 21:47:00,53.0,44.0,-100.00,SW,220,2.0,4.0,72,-99.99,,,-99.99,,2017-03-30 01:47:00,
2017-03-29 23:08:00,51.0,44.0,-100.00,WSW,250,0.0,3.0,75,-99.99,,,-99.99,,2017-03-30 03:08:00,